星链-2732 (STARLINK-2732 )

导读 | 星芒AI

STARLINK-2732 是 SpaceX Starlink 项目中的一颗低轨通信卫星,属于第二代 Starlink 卫星(Gen2)批次。该卫星于2023年发射,旨在为全球提供高速、低延迟的互联网服务。它运行在约550公里高度的近地轨道,配备先进通信设备和激光链路,以提升网络性能和卫星间通信能力。作为 Starlink 卫星群的一部分,STARLINK-2732 有助于扩大覆盖范围并增强系统的稳定性和容量。

基本信息
目录编号:
48646
目录名称:
STARLINK-2732
国际标识:
2021-044J
轨道中心:
EARTH
卫星名称:
星链-2732
卫星全名:
星链-2732 (STARLINK-2732 )
卫星状态:
在轨 (已飞行1667 天)
发射日期:
2021-05-26 UTC
国别 :
美国 (US)
星等 :
--
轨道信息
数据来源 国际轨道数据 AOE轨道数据
星历时间 2025-12-18T00:43:36+0800
18小时前
查看轨道信息
2025-12-16T08:00:00+0800
2天前
查看轨道信息
半长轴 6925.338km 6925.305km
偏心率 0.000116 0.000201
轨道倾角 53.055° 53.059°
近地点辐角 101.955° 78.686°
升交点赤经 129.697° 137.311°
平近点角 258.157° 73.746°
近地点 546.399km 545.778km
远地点 548.007km 548.562km
周期 95.592分钟 95.591分钟
每日圈数 15.064037 15.064144
详细信息
固有亮度:
5
最大亮度:
2.5
卫星平台:
Starlink V1.0
覆盖范围:
全球
运营商:
太空探索技术公司
运营商所在国:
美国
制造商(研发单位):
太空探索技术公司
制造商所在国:
美国
使用方式:
暂无
卫星简介
星链(Starlink)计划是由太空探索技术公司(SpaceX)提出的一个巨型低轨卫星互联网星座项目,计划在2019年至2024年间在太空搭建由约1.2万颗卫星组成的“星链”网络,其中1584颗将部署在地球上空550千米处的近地轨道,并从2020年开始工作。该卫星仍在工作。
2D轨道图
3D轨道图
轨道高度分析图
轨道倾角分析图
轨道综合分析图
查看轨道综合分析图